This is the latest recevied weather packets stored in our database for station/object KQ4WWD. If no packets are shown the sender has not sent any weather packets the latest 10 day(s).
| Time | Temp. | Humidity | Pressure | Rain* | Wind** | Luminosity | Snow |
|---|---|---|---|---|---|---|---|
| 1777681256 | 26.67° C | 71% | 1010.4 hPa | 0 mm | - | 0 W/m² | - |
| 1777680954 | 26.67° C | 70% | 1010.2 hPa | 0 mm | - | 0 W/m² | - |
| 1777680651 | 26.67° C | 69% | 1010 hPa | 0 mm | - | 0 W/m² | - |
| 1777680349 | 26.67° C | 68% | 1010.2 hPa | 0 mm | - | 0 W/m² | - |
| 1777680046 | 27.22° C | 67% | 1010.1 hPa | 0 mm | - | 3 W/m² | - |
| 1777679742 | 27.22° C | 66% | 1010 hPa | 0 mm | - | 8 W/m² | - |
| 1777679438 | 27.22° C | 65% | 1010 hPa | 0 mm | - | 13 W/m² | - |
| 1777679134 | 27.78° C | 64% | 1009.8 hPa | 0 mm | - | 16 W/m² | - |
| 1777678832 | 27.78° C | 64% | 1009.7 hPa | 0 mm | - | 19 W/m² | - |
| 1777678529 | 27.78° C | 64% | 1009.7 hPa | 0 mm | - | 21 W/m² | - |
| 1777678226 | 27.78° C | 63% | 1009.6 hPa | 0 mm | - | 24 W/m² | - |
| 1777677922 | 28.33° C | 62% | 1009.7 hPa | 0 mm | - | 28 W/m² | - |
| 1777677620 | 28.33° C | 60% | 1009.5 hPa | 0 mm | - | 35 W/m² | - |
| 1777677318 | 28.89° C | 59% | 1009.7 hPa | 0 mm | - | 39 W/m² | - |
| 1777677016 | 28.89° C | 59% | 1009.5 hPa | 0 mm | - | 41 W/m² | - |
| 1777676714 | 28.89° C | 57% | 1009.4 hPa | 0 mm | - | 42 W/m² | - |
| 1777676411 | 28.89° C | 57% | 1009.5 hPa | 0 mm | - | 46 W/m² | - |
| 1777676109 | 28.89° C | 56% | 1009.2 hPa | 0 mm | - | 47 W/m² | - |
| 1777675804 | 29.44° C | 56% | 1009.4 hPa | 0 mm | - | 42 W/m² | - |
| 1777675503 | 30° C | 56% | 1009.2 hPa | 0 mm | - | 51 W/m² | - |
| 1777675199 | 30° C | 55% | 1009.1 hPa | 0 mm | - | 86 W/m² | - |
| 1777674896 | 30.56° C | 54% | 1008.8 hPa | 0 mm | - | 175 W/m² | - |
| 1777674591 | 30.56° C | 54% | 1008.8 hPa | 0 mm | - | 217 W/m² | - |
| 1777674289 | 30.56° C | 54% | 1008.7 hPa | 0 mm | - | 210 W/m² | - |
| 1777673985 | 30° C | 55% | 1008.8 hPa | 0 mm | - | 179 W/m² | - |
* Rain latest hour (hover to see other rain measurements)
** Current wind speed in m/s (hover to see current wind gust speed)